Regional Weather Roundup
Issued by NWS

Home | Current Version | Previous Version | Graphics & Text | Print | Product List | Glossary On
Versions: 1 2 3 4 5 6 7 8 9 10 11 12 13 14 15 16 17 18 19 20 21 22 23 24 25 26 27 28 29 30 31 32 33 34 35 36 37 38 39 40 41 42 43 44 45 46 47 48 49 50
000
ASUS43 KMPX 191310
RWRMN
WEATHER ROUNDUP FOR MINNESOTA
NATIONAL WEATHER SERVICE TWIN CITIES/CHANHASSEN MN
700 AM CST SUN FEB 19 2017


NOTE: "FAIR" INDICATES FEW OR NO CLOUDS BELOW 12,000 FEET WITH NO
SIGNIFICANT WEATHER AND/OR OBSTRUCTIONS TO VISIBILITY. N/A MEANS
CURRENT SKY AND/OR WEATHER CONDITIONS ARE NOT AVAILABLE.

MNZ060>063-068>070-191400-
   Twin Cities Metro

CITY           SKY/WX    TMP DP  RH WIND       PRES   REMARKS
TWIN CITIES    PTCLDY    36  32  85 SE5       29.93S
ST PAUL        CLOUDY    29  29 100 SE3       29.95R
CRYSTAL        CLOUDY    28  24  85 CALM      29.92R
BLAINE         PTCLDY    30  30 100 CALM      29.92S
LAKEVILLE      CLOUDY    27  27 100 CALM      29.94R
EDEN PRAIRIE   PTCLDY    34  32  92 CALM      29.92R
SOUTH ST PAUL  CLOUDY    31  31  98 CALM      29.94R
LAKE ELMO      FAIR      28  28 100 CALM      29.94F
$$
MNZ001>005-007-008-013>017-022>024-027-028-191400-
   Northwest Minnesota

CITY           SKY/WX    TMP DP  RH WIND       PRES   REMARKS
BEMIDJI        CLOUDY    32  31  96 E7        29.87S WCI  26
HALLOCK        CLOUDY    36  30  80 E15       29.82F
ROSEAU         CLOUDY    34  28  80 E8        29.88S WCI  27
WARROAD        CLOUDY    30  28  93 E6        29.89S WCI  24
THIEF RVR FALL CLOUDY    35  30  82 E16       29.84S WCI  25
CROOKSTON      CLOUDY    36  34  93 SE15      29.81S
FOSSTON        CLOUDY    34  32  93 E10       29.84S WCI  26
DETROIT LAKES  CLOUDY    37  34  87 SE10      29.85R
MOORHEAD       CLOUDY    39  36  87 SE12      29.80S
PARK RAPIDS    PTCLDY    36  30  79 E10       29.86S
MAHNOMEN       FAIR      38  32  81 SE12G17   29.82S
$$
MNZ006-009>011-018-025>026-191400-
   North Central Minnesota

CITY           SKY/WX    TMP DP  RH WIND       PRES   REMARKS
BAUDETTE       CLOUDY    31  28  89 SE5       29.89R WCI  26
FLAG ISLAND    CLOUDY    30  27  86 CALM      29.90R
INTL FALLS     CLOUDY    30  27  88 E3        29.91R
WASKISH        PTCLDY    32  30  93 E5        29.90S WCI  27
BIG FORK       CLOUDY    28  27  93 CALM      29.91R
LONGVILLE      PTCLDY    25  25 100 CALM      29.90S
GRAND RAPIDS   PTCLDY    30  29  96 SE7       29.93R WCI  23
CRANE LAKE     CLOUDY    27  27 100 CALM      29.95R
ORR            MOCLDY    30  27  86 CALM      29.90R
COOK           CLOUDY    28  28 100 CALM      29.92R
WALKER         FAIR      28  27  97 E3        29.89R
$$
MNZ012-019>021-037-191400-
   Northeast Minnesota

CITY           SKY/WX    TMP DP  RH WIND       PRES   REMARKS
DULUTH         PTCLDY    30  29  96 E3        29.93R
ELY            CLOUDY    28  28 100 CALM      29.92S
HIBBING        CLOUDY    25  25 100 CALM      29.92R
EVELETH        PTCLDY    30  28  94 CALM      29.94R
DULUTH HARBOR  PTCLDY    30  28  93 CALM      29.97R
TWO HARBORS    CLOUDY    34  28  80 CALM      29.94R
SILVER BAY     CLOUDY    34  30  86 CALM      29.93R
GRAND MARAIS     N/A     38  29  70 VRB5      29.96R
G MARAIS ARPRT CLOUDY    28  25  86 CALM      29.93R
$$
MNZ029>031-032-039>041-046>048-054>057-064-191400-
   West Central Minnesota

CITY           SKY/WX    TMP DP  RH WIND       PRES   REMARKS
FERGUS FALLS   PTCLDY    43  37  81 SE10      29.86R
WHEATON        PTCLDY    34  34 100 SE14      29.81F WCI  24
MORRIS         PTCLDY    37  36  93 SE10      29.82S
ALEXANDRIA     PTCLDY    38  35  89 SE8       29.87R
ELBOW LAKE     FAIR      40  37  90 SE10      29.83S
WADENA         PTCLDY    34  34 100 E3        29.87R
GLENWOOD       PTCLDY    36  34  93 E7        29.87S
APPLETON       PTCLDY    37  36  93 SE8       29.83S
BENSON         CLOUDY    43  36  75 SE10      29.86S
ORTONVILLE     PTCLDY    36  32  87 SE10      29.81S
WILLMAR        FAIR      37  36  93 CALM      29.89R
$$
MNZ033>034-036-042>043-049>051-058-059-191400-
   Central Minnesota

CITY           SKY/WX    TMP DP  RH WIND       PRES   REMARKS
ST CLOUD       PTCLDY    32  32 100 SE3       29.91R FOG
SAUK CENTRE    FAIR      32  32 100 CALM      29.89R FOG
PAYNESVILLE    PTCLDY    36  36 100 SE6       29.90R
AITKIN         PTCLDY    28  25  86 CALM      29.90S
PINE RIVER     PTCLDY    34  34 100 SE6       29.94R WCI  29
BRAINERD       PTCLDY    30  28  92 CALM      29.91R
STAPLES        CLOUDY    36  36 100 E5        29.88R
LONG PRAIRIE   FAIR      34  34 100 E5        29.89R WCI  30
LITTLE FALLS   PTCLDY    30  28  93 CALM      29.90R
LITCHFIELD     CLOUDY    34  34 100 E5        29.91R FOG     WCI  30
BUFFALO        PTCLDY    31  30  95 CALM      29.94R FOG
MAPLE LAKE     PTCLDY    34  34 100 CALM      29.93R FOG
HUTCHINSON     CLOUDY    35  35 100 E3        29.92R
$$
MNZ037-044-045-052-053-191400-
   East Central Minnesota

CITY           SKY/WX    TMP DP  RH WIND       PRES   REMARKS
PRINCETON      PTCLDY    28  28 100 CALM      29.92R
MORA           CLOUDY    28  28 100 CALM      29.94S
CAMBRIDGE      CLOUDY    28  23  80 CALM      29.91R
RUSH CITY      PTCLDY    28  27  93 CALM      29.94R
MOOSE LAKE     CLOUDY    30  27  86 CALM      29.92S
HINCKLEY       FAIR      30  30 100 CALM      29.94R
CLOQUET        CLOUDY    28  27  93 CALM      29.93S
MCGREGOR       PTCLDY    32  30  93 E3        29.92S
$$
MNZ071>073-080-081-089-090-097-098-191400-
   Southwest Minnesota

CITY           SKY/WX    TMP DP  RH WIND       PRES   REMARKS
MONTEVIDEO     CLOUDY    36  36 100 S9        29.86S
GRANITE FALLS  CLOUDY    39  37  92 E9        29.86S
CANBY          CLOUDY    33  33  97 CALM      29.82S
MARSHALL       CLOUDY    42  36  79 S15       29.83F
REDWOOD FALLS  PTCLDY    36  34  92 SE6       29.87R
OLIVIA         PTCLDY    36  34  93 SE7       29.87R
PIPESTONE      CLOUDY    43  32  65 SE9       29.81S
WINDOM         CLOUDY    39  37  93 SE9       29.87S
JACKSON        PTCLDY    37  36  93 S10       29.89R
TRACY          CLOUDY    44  39  84 S14G20    29.84S
SLAYTON        MOCLDY    34  33  98 SE9       29.85S WCI  26
$$
MNZ065>067-074>077-082>085-091>093-191400-
   South Central Minnesota

CITY           SKY/WX    TMP DP  RH WIND       PRES   REMARKS
MANKATO          N/A     34  33  96 SE8       29.93R WCI  27
NEW ULM        CLOUDY    36  34  93 SE8       29.89R FOG
ST JAMES       CLOUDY    36  36 100 SE7       29.91R FOG
FAIRMONT       PTCLDY    34  33  96 S8        29.91S FOG     WCI  27
GLENCOE        CLEAR     35  35 100 E5        29.91R WCI  31
FARIBAULT      PTCLDY    28  28 100 CALM      29.93S
OWATONNA       CLEAR     36  34  93 SE8       29.93S
WASECA         CLEAR     32  32 100 E5        29.94R FOG     WCI  27
ALBERT LEA     FOG       32  32 100 S3        29.94R VSB 1/2
$$
MNZ078>079-086>088-094>096-191400-
   Southeast Minnesota

CITY           SKY/WX    TMP DP  RH WIND       PRES   REMARKS
ROCHESTER      CLEAR     31  31 100 S8        29.95R WCI  23
RED WING       PTCLDY    30  30 100 CALM      29.95R FOG
STANTON        PTCLDY    31  29  93 CALM      29.93S
DODGE CENTER   PTCLDY    34  32  93 SE5       29.94R WCI  30
WINONA         PTCLDY    28  28 100 CALM      29.99R
AUSTIN         CLEAR     34  34 100 SE3       29.95R
PRESTON        CLEAR     32  31  98 S7        29.97R WCI  25
$$
ABBREVIATIONS USED IN REMARKS
   TC - TEMPERATURES IN CELSIUS
  WCI - WIND CHILL INDEX
   HX - HEAT INDEX
  VSB - VISIBILITY
$$




USA.gov is the U.S. government's official web portal to all federal, state and local government web resources and services.